Zurück zum Katalog

STRIX-5

AktivWissenschaftVLEO
NORAD 65971·PAYLOAD·🇯🇵 Japan

Gestartet Oct 14, 2025 von Rocket Lab Launch Complex 1

Loading…

Nächste Überflüge (nächste 24 Stunden)

TLE

AktuellSource: Space-Track

Epoche: Sep 14, 2026, 02:45 UTC

1 65971U 25229A   26257.11504667  .00003505  00000-0  25272-3 0  9994
2 65971  41.9274 154.0702 0037449 275.9786  83.6773 15.04974839 50376

Verfolge STRIX-5 in Echtzeit mit AllMySat

Download on the App Store